Time,TemperatureF,DewpointF,PressureIn,WindDirection,WindDirectionDegrees,WindSpeedMPH,WindSpeedGustMPH,Humidity,HourlyPrecipIn,Conditions,Clouds,dailyrainin,SoftwareType,DateUTC
2013-08-03 00:03:00,75.9,75.0,29.86,North,354,0.0,0.0,97,0.00,,,0.00,Wunderground v.1.15,2013-08-03 05:03:00,
2013-08-03 00:09:00,75.9,74.7,29.86,North,354,0.0,0.0,96,0.00,,,0.00,Wunderground v.1.15,2013-08-03 05:09:00,
2013-08-03 00:15:00,75.7,74.5,29.86,North,354,0.0,0.0,96,0.00,,,0.00,Wunderground v.1.15,2013-08-03 05:15:00,
2013-08-03 00:21:00,75.8,74.9,29.86,North,354,0.0,0.0,97,0.00,,,0.00,Wunderground v.1.15,2013-08-03 05:21:00,
2013-08-03 00:27:00,75.8,74.9,29.86,North,354,0.0,0.0,97,0.00,,,0.00,Wunderground v.1.15,2013-08-03 05:27:00,
2013-08-03 00:33:00,75.7,74.8,29.86,North,354,0.0,0.0,97,0.00,,,0.00,Wunderground v.1.15,2013-08-03 05:33:00,
2013-08-03 00:38:00,75.7,74.8,29.86,North,354,0.0,0.0,97,0.00,,,0.00,Wunderground v.1.15,2013-08-03 05:38:00,
2013-08-03 00:44:00,75.6,74.7,29.86,North,354,0.0,0.0,97,0.00,,,0.00,Wunderground v.1.15,2013-08-03 05:44:00,
2013-08-03 00:50:00,75.6,74.7,29.86,North,354,0.0,0.0,97,0.00,,,0.00,Wunderground v.1.15,2013-08-03 05:50:00,
2013-08-03 00:56:00,75.6,74.7,29.86,North,354,0.0,0.0,97,0.00,,,0.00,Wunderground v.1.15,2013-08-03 05:56:00,
2013-08-03 01:01:00,75.7,74.8,29.87,North,354,0.0,0.0,97,0.00,,,0.00,Wunderground v.1.15,2013-08-03 06:01:00,
2013-08-03 01:07:00,75.7,74.8,29.86,East,94,0.0,0.0,97,0.00,,,0.00,Wunderground v.1.15,2013-08-03 06:07:00,
2013-08-03 01:13:00,75.7,74.8,29.86,East,94,0.0,0.0,97,0.00,,,0.00,Wunderground v.1.15,2013-08-03 06:13:00,
2013-08-03 01:19:00,75.7,74.8,29.87,East,93,0.0,0.0,97,0.00,,,0.00,Wunderground v.1.15,2013-08-03 06:19:00,
2013-08-03 01:25:00,75.6,74.7,29.87,East,93,0.0,0.0,97,0.00,,,0.00,Wunderground v.1.15,2013-08-03 06:25:00,
2013-08-03 01:30:00,75.5,74.6,29.87,East,94,0.0,0.0,97,0.00,,,0.00,Wunderground v.1.15,2013-08-03 06:30:00,
2013-08-03 01:36:00,75.4,74.5,29.87,East,94,0.0,0.0,97,0.00,,,0.00,Wunderground v.1.15,2013-08-03 06:36:00,
2013-08-03 01:41:00,75.2,74.3,29.86,East,94,0.0,0.0,97,0.00,,,0.00,Wunderground v.1.15,2013-08-03 06:41:00,
2013-08-03 01:47:00,75.1,74.2,29.86,East,93,0.0,0.0,97,0.00,,,0.00,Wunderground v.1.15,2013-08-03 06:47:00,
2013-08-03 01:53:00,74.9,74.0,29.86,South,179,0.0,0.0,97,0.00,,,0.00,Wunderground v.1.15,2013-08-03 06:53:00,
2013-08-03 01:58:00,74.9,74.0,29.85,SSW,197,0.0,0.0,97,0.00,,,0.00,Wunderground v.1.15,2013-08-03 06:58:00,
2013-08-03 02:03:00,74.7,73.8,29.85,SSW,211,0.0,0.0,97,0.00,,,0.00,Wunderground v.1.15,2013-08-03 07:03:00,
2013-08-03 02:08:00,74.7,73.8,29.84,SSW,210,0.0,0.0,97,0.00,,,0.00,Wunderground v.1.15,2013-08-03 07:08:00,
2013-08-03 02:13:00,74.7,73.8,29.84,SSW,211,0.0,0.0,97,0.00,,,0.00,Wunderground v.1.15,2013-08-03 07:13:00,
2013-08-03 02:18:00,74.7,73.8,29.84,SSW,211,0.0,0.0,97,0.00,,,0.01,Wunderground v.1.15,2013-08-03 07:18:00,
2013-08-03 02:23:00,74.6,73.7,29.83,SSW,211,0.0,0.0,97,0.00,,,0.01,Wunderground v.1.15,2013-08-03 07:23:00,
2013-08-03 02:28:00,74.7,73.8,29.83,SSW,211,0.0,0.0,97,0.00,,,0.01,Wunderground v.1.15,2013-08-03 07:28:00,
2013-08-03 02:33:00,74.9,74.0,29.83,SSW,211,0.0,0.0,97,0.00,,,0.01,Wunderground v.1.15,2013-08-03 07:33:00,
2013-08-03 02:38:00,74.9,74.0,29.83,SSW,211,0.0,0.0,97,0.00,,,0.01,Wunderground v.1.15,2013-08-03 07:38:00,
2013-08-03 02:43:00,75.0,74.1,29.83,SSW,210,0.0,0.0,97,0.00,,,0.01,Wunderground v.1.15,2013-08-03 07:43:00,
2013-08-03 02:48:00,75.2,74.3,29.83,SSW,211,0.0,0.0,97,0.00,,,0.01,Wunderground v.1.15,2013-08-03 07:48:00,
2013-08-03 02:53:00,75.4,74.5,29.84,SSW,211,0.0,0.0,97,0.00,,,0.01,Wunderground v.1.15,2013-08-03 07:53:00,
2013-08-03 02:58:00,75.6,74.7,29.84,NNW,345,0.0,0.0,97,0.00,,,0.01,Wunderground v.1.15,2013-08-03 07:58:00,
2013-08-03 03:03:00,75.9,75.0,29.84,NNW,345,0.0,0.0,97,0.00,,,0.01,Wunderground v.1.15,2013-08-03 08:03:00,
2013-08-03 03:08:00,76.1,75.2,29.84,NNW,345,0.0,0.0,97,0.00,,,0.01,Wunderground v.1.15,2013-08-03 08:08:00,
2013-08-03 03:13:00,76.3,75.4,29.84,WNW,288,2.0,3.0,97,0.00,,,0.01,Wunderground v.1.15,2013-08-03 08:13:00,
2013-08-03 03:18:00,76.8,75.9,29.84,WNW,287,0.0,3.0,97,0.00,,,0.01,Wunderground v.1.15,2013-08-03 08:18:00,
2013-08-03 03:23:00,77.0,76.1,29.84,SSW,209,0.0,1.0,97,0.00,,,0.01,Wunderground v.1.15,2013-08-03 08:23:00,
2013-08-03 03:28:00,77.1,75.9,29.84,SSW,209,0.0,1.0,96,0.00,,,0.01,Wunderground v.1.15,2013-08-03 08:28:00,
2013-08-03 03:33:00,77.1,75.9,29.84,SSW,209,0.0,1.0,96,0.00,,,0.01,Wunderground v.1.15,2013-08-03 08:33:00,
2013-08-03 03:38:00,77.3,76.1,29.84,SSW,210,0.0,1.0,96,0.00,,,0.01,Wunderground v.1.15,2013-08-03 08:38:00,
2013-08-03 03:43:00,77.7,76.2,29.84,West,273,0.0,2.0,95,0.00,,,0.01,Wunderground v.1.15,2013-08-03 08:43:00,
2013-08-03 03:48:00,78.3,76.1,29.84,WNW,285,0.0,4.0,93,0.00,,,0.01,Wunderground v.1.15,2013-08-03 08:48:00,
2013-08-03 03:53:00,78.7,76.2,29.83,West,281,3.0,3.0,92,0.00,,,0.01,Wunderground v.1.15,2013-08-03 08:53:00,
2013-08-03 03:58:00,79.1,76.2,29.83,West,280,1.0,4.0,91,0.00,,,0.01,Wunderground v.1.15,2013-08-03 08:58:00,
2013-08-03 04:03:00,79.3,76.1,29.83,WSW,250,0.0,3.0,90,0.00,,,0.01,Wunderground v.1.15,2013-08-03 09:03:00,
2013-08-03 04:08:00,79.4,76.2,29.82,West,276,0.0,3.0,90,0.00,,,0.01,Wunderground v.1.15,2013-08-03 09:08:00,
2013-08-03 04:13:00,79.6,76.1,29.82,West,269,1.0,4.0,89,0.00,,,0.01,Wunderground v.1.15,2013-08-03 09:13:00,
2013-08-03 04:18:00,79.8,76.3,29.83,SW,222,1.0,4.0,89,0.00,,,0.01,Wunderground v.1.15,2013-08-03 09:18:00,
2013-08-03 04:23:00,79.9,76.0,29.83,WNW,285,3.0,3.0,88,0.00,,,0.01,Wunderground v.1.15,2013-08-03 09:23:00,
2013-08-03 04:28:00,80.2,76.0,29.83,West,277,2.0,6.0,87,0.00,,,0.01,Wunderground v.1.15,2013-08-03 09:28:00,
2013-08-03 04:33:00,80.4,76.2,29.83,WNW,292,2.0,4.0,87,0.00,,,0.01,Wunderground v.1.15,2013-08-03 09:33:00,
2013-08-03 04:38:00,80.6,76.0,29.84,West,273,3.0,5.0,86,0.00,,,0.01,Wunderground v.1.15,2013-08-03 09:38:00,
2013-08-03 04:43:00,80.7,76.1,29.84,WSW,256,2.0,6.0,86,0.00,,,0.01,Wunderground v.1.15,2013-08-03 09:43:00,
2013-08-03 04:48:00,80.8,76.2,29.85,West,270,4.0,6.0,86,0.00,,,0.01,Wunderground v.1.15,2013-08-03 09:48:00,
2013-08-03 04:53:00,80.9,76.3,29.86,WNW,297,2.0,7.0,86,0.00,,,0.01,Wunderground v.1.15,2013-08-03 09:53:00,
2013-08-03 04:58:00,80.9,76.3,29.86,West,266,3.0,7.0,86,0.00,,,0.01,Wunderground v.1.15,2013-08-03 09:58:00,
2013-08-03 05:03:00,80.7,76.5,29.87,WNW,300,2.0,5.0,87,0.00,,,0.01,Wunderground v.1.15,2013-08-03 10:03:00,
2013-08-03 05:08:00,80.3,76.4,29.88,WNW,294,2.0,5.0,88,0.00,,,0.02,Wunderground v.1.15,2013-08-03 10:08:00,
2013-08-03 05:13:00,80.2,76.0,29.89,NW,305,4.0,6.0,87,0.00,,,0.02,Wunderground v.1.15,2013-08-03 10:13:00,
2013-08-03 05:18:00,80.6,76.0,29.90,WNW,297,3.0,8.0,86,0.00,,,0.02,Wunderground v.1.15,2013-08-03 10:18:00,
2013-08-03 05:23:00,80.6,76.0,29.91,North,360,3.0,11.0,86,0.00,,,0.02,Wunderground v.1.15,2013-08-03 10:23:00,
2013-08-03 05:28:00,79.9,76.0,29.91,NW,314,3.0,11.0,88,0.72,,,0.11,Wunderground v.1.15,2013-08-03 10:28:00,
2013-08-03 05:33:00,79.2,76.0,29.93,NW,319,2.0,5.0,90,0.16,,,0.12,Wunderground v.1.15,2013-08-03 10:33:00,
2013-08-03 05:38:00,78.4,74.2,29.96,NNW,345,4.0,19.0,87,0.84,,,0.15,Wunderground v.1.15,2013-08-03 10:38:00,
2013-08-03 05:43:00,75.9,72.1,29.95,East,82,11.0,11.0,88,1.71,,,0.26,Wunderground v.1.15,2013-08-03 10:43:00,
2013-08-03 05:48:00,73.3,70.2,29.95,NNE,28,8.0,15.0,90,1.09,,,0.37,Wunderground v.1.15,2013-08-03 10:48:00,
2013-08-03 05:53:00,72.2,70.1,29.97,NE,47,5.0,8.0,93,2.00,,,0.49,Wunderground v.1.15,2013-08-03 10:53:00,
2013-08-03 05:58:00,71.6,69.8,29.98,ENE,70,1.0,10.0,94,1.10,,,0.59,Wunderground v.1.15,2013-08-03 10:58:00,
2013-08-03 06:03:00,71.3,69.8,29.99,North,355,0.0,4.0,95,0.87,,,0.66,Wunderground v.1.15,2013-08-03 11:03:00,
2013-08-03 06:08:00,71.1,69.6,30.01,WNW,302,0.0,5.0,95,1.15,,,0.75,Wunderground v.1.15,2013-08-03 11:08:00,
2013-08-03 06:13:00,71.0,69.5,30.01,SE,134,1.0,3.0,95,0.92,,,0.86,Wunderground v.1.15,2013-08-03 11:13:00,
2013-08-03 06:18:00,70.8,69.3,30.01,North,351,1.0,3.0,95,1.48,,,0.98,Wunderground v.1.15,2013-08-03 11:18:00,
2013-08-03 06:23:00,70.7,69.5,30.01,NE,56,1.0,2.0,96,0.59,,,1.05,Wunderground v.1.15,2013-08-03 11:23:00,
2013-08-03 06:28:00,70.6,69.4,30.01,East,83,2.0,4.0,96,0.80,,,1.11,Wunderground v.1.15,2013-08-03 11:28:00,
2013-08-03 06:33:00,70.5,69.3,30.02,East,79,2.0,3.0,96,0.99,,,1.19,Wunderground v.1.15,2013-08-03 11:33:00,
2013-08-03 06:38:00,70.5,69.3,30.02,North,358,1.0,4.0,96,0.64,,,1.26,Wunderground v.1.15,2013-08-03 11:38:00,
2013-08-03 06:43:00,70.5,69.3,30.02,ENE,60,0.0,3.0,96,1.42,,,1.36,Wunderground v.1.15,2013-08-03 11:43:00,
2013-08-03 06:48:00,70.3,69.1,30.02,East,84,0.0,3.0,96,0.67,,,1.40,Wunderground v.1.15,2013-08-03 11:48:00,
2013-08-03 06:53:00,70.3,69.1,30.04,West,278,1.0,2.0,96,0.62,,,1.47,Wunderground v.1.15,2013-08-03 11:53:00,
2013-08-03 06:58:00,70.2,69.0,30.04,NNW,338,0.0,2.0,96,0.78,,,1.56,Wunderground v.1.15,2013-08-03 11:58:00,
2013-08-03 07:03:00,70.1,68.9,30.04,ENE,73,0.0,3.0,96,0.69,,,1.61,Wunderground v.1.15,2013-08-03 12:03:00,
2013-08-03 07:08:00,70.0,68.8,30.03,NNE,23,2.0,3.0,96,0.50,,,1.66,Wunderground v.1.15,2013-08-03 12:08:00,
2013-08-03 07:13:00,69.9,68.7,30.04,East,98,0.0,1.0,96,0.81,,,1.71,Wunderground v.1.15,2013-08-03 12:13:00,
2013-08-03 07:18:00,70.0,69.1,30.05,ESE,113,0.0,2.0,97,0.69,,,1.77,Wunderground v.1.15,2013-08-03 12:18:00,
2013-08-03 07:23:00,70.2,69.3,30.05,SE,141,1.0,3.0,97,0.34,,,1.80,Wunderground v.1.15,2013-08-03 12:23:00,
2013-08-03 07:28:00,70.2,69.3,30.05,SE,141,0.0,3.0,97,0.74,,,1.85,Wunderground v.1.15,2013-08-03 12:28:00,
2013-08-03 07:33:00,70.2,69.3,30.06,WSW,243,0.0,1.0,97,0.49,,,1.91,Wunderground v.1.15,2013-08-03 12:33:00,
2013-08-03 07:38:00,70.2,69.3,30.06,WSW,243,0.0,1.0,97,0.20,,,1.94,Wunderground v.1.15,2013-08-03 12:38:00,
2013-08-03 07:43:00,70.2,69.3,30.06,WSW,243,0.0,1.0,97,0.40,,,1.99,Wunderground v.1.15,2013-08-03 12:43:00,
2013-08-03 07:48:00,70.1,69.2,30.06,WSW,243,0.0,1.0,97,0.38,,,2.03,Wunderground v.1.15,2013-08-03 12:48:00,
2013-08-03 07:53:00,70.1,69.2,30.05,SSE,156,0.0,0.0,97,0.47,,,2.08,Wunderground v.1.15,2013-08-03 12:53:00,
2013-08-03 07:59:00,70.1,69.2,30.06,ESE,120,1.0,1.0,97,0.46,,,2.12,Wunderground v.1.15,2013-08-03 12:59:00,
2013-08-03 08:05:00,69.9,69.0,30.05,ESE,119,1.0,1.0,97,0.47,,,2.16,Wunderground v.1.15,2013-08-03 13:05:00,
2013-08-03 08:10:00,69.9,69.0,30.05,SW,225,0.0,1.0,97,0.48,,,2.19,Wunderground v.1.15,2013-08-03 13:10:00,
2013-08-03 08:16:00,69.9,69.0,30.03,South,178,0.0,2.0,97,0.32,,,2.23,Wunderground v.1.15,2013-08-03 13:16:00,
2013-08-03 08:21:00,69.8,68.9,30.03,ESE,103,0.0,1.0,97,0.15,,,2.24,Wunderground v.1.15,2013-08-03 13:21:00,
2013-08-03 08:27:00,69.7,68.8,30.03,SW,233,0.0,1.0,97,0.21,,,2.26,Wunderground v.1.15,2013-08-03 13:27:00,
2013-08-03 08:32:00,69.7,68.8,30.04,WNW,284,1.0,1.0,97,0.30,,,2.29,Wunderground v.1.15,2013-08-03 13:32:00,
2013-08-03 08:37:00,69.6,68.7,30.04,ENE,60,1.0,4.0,97,0.15,,,2.30,Wunderground v.1.15,2013-08-03 13:37:00,
2013-08-03 08:42:00,69.6,68.7,30.03,SE,129,1.0,2.0,97,0.12,,,2.31,Wunderground v.1.15,2013-08-03 13:42:00,
2013-08-03 08:47:00,69.5,68.6,30.03,WSW,243,3.0,5.0,97,0.12,,,2.32,Wunderground v.1.15,2013-08-03 13:47:00,
2013-08-03 08:52:00,69.4,68.5,30.03,WSW,243,1.0,1.0,97,0.11,,,2.33,Wunderground v.1.15,2013-08-03 13:52:00,
2013-08-03 08:57:00,69.4,68.5,30.03,SW,214,1.0,1.0,97,0.06,,,2.33,Wunderground v.1.15,2013-08-03 13:57:00,
2013-08-03 09:02:00,69.3,68.4,30.04,SW,229,1.0,1.0,97,0.05,,,2.34,Wunderground v.1.15,2013-08-03 14:02:00,
2013-08-03 09:07:00,69.3,68.4,30.04,SE,134,1.0,3.0,97,0.05,,,2.34,Wunderground v.1.15,2013-08-03 14:07:00,
2013-08-03 09:12:00,69.3,68.4,30.04,WSW,249,1.0,3.0,97,0.05,,,2.34,Wunderground v.1.15,2013-08-03 14:12:00,
2013-08-03 09:17:00,69.3,68.4,30.05,West,263,0.0,3.0,97,0.00,,,2.35,Wunderground v.1.15,2013-08-03 14:17:00,
2013-08-03 09:22:00,69.4,68.5,30.05,WSW,255,0.0,1.0,97,0.00,,,2.35,Wunderground v.1.15,2013-08-03 14:22:00,
2013-08-03 09:27:00,69.4,68.5,30.04,SE,141,0.0,1.0,97,0.00,,,2.35,Wunderground v.1.15,2013-08-03 14:27:00,
2013-08-03 09:33:00,69.5,68.6,30.04,WSW,239,0.0,1.0,97,0.00,,,2.35,Wunderground v.1.15,2013-08-03 14:33:00,
2013-08-03 09:38:00,69.6,68.7,30.04,NW,321,1.0,1.0,97,0.00,,,2.35,Wunderground v.1.15,2013-08-03 14:38:00,
2013-08-03 09:43:00,69.6,68.7,30.04,NNW,336,0.0,1.0,97,0.00,,,2.36,Wunderground v.1.15,2013-08-03 14:43:00,
2013-08-03 09:48:00,69.6,68.7,30.04,NNW,336,0.0,1.0,97,0.00,,,2.36,Wunderground v.1.15,2013-08-03 14:48:00,
2013-08-03 09:52:00,69.6,68.7,30.04,WSW,249,0.0,1.0,97,0.06,,,2.37,Wunderground v.1.15,2013-08-03 14:52:00,
2013-08-03 09:58:00,69.6,68.7,30.04,WSW,240,0.0,2.0,97,0.06,,,2.37,Wunderground v.1.15,2013-08-03 14:58:00,
2013-08-03 10:03:00,69.5,68.6,30.03,West,259,0.0,1.0,97,0.05,,,2.37,Wunderground v.1.15,2013-08-03 15:03:00,
2013-08-03 10:08:00,69.4,68.5,30.03,East,98,0.0,1.0,97,0.00,,,2.37,Wunderground v.1.15,2013-08-03 15:08:00,
2013-08-03 10:13:00,69.6,68.7,30.03,East,98,1.0,1.0,97,0.00,,,2.37,Wunderground v.1.15,2013-08-03 15:13:00,
2013-08-03 10:18:00,69.7,68.8,30.04,West,264,0.0,2.0,97,0.00,,,2.37,Wunderground v.1.15,2013-08-03 15:18:00,
2013-08-03 10:23:00,69.7,68.8,30.04,West,270,1.0,2.0,97,0.00,,,2.38,Wunderground v.1.15,2013-08-03 15:23:00,
2013-08-03 10:28:00,69.8,68.9,30.03,SW,233,0.0,2.0,97,0.00,,,2.38,Wunderground v.1.15,2013-08-03 15:28:00,
2013-08-03 10:33:00,70.0,69.1,30.03,WSW,245,0.0,1.0,97,0.00,,,2.38,Wunderground v.1.15,2013-08-03 15:33:00,
2013-08-03 10:38:00,70.2,69.3,30.03,WNW,288,0.0,1.0,97,0.00,,,2.38,Wunderground v.1.15,2013-08-03 15:38:00,
2013-08-03 10:43:00,70.7,69.8,30.03,SSW,208,0.0,1.0,97,0.00,,,2.38,Wunderground v.1.15,2013-08-03 15:43:00,
2013-08-03 10:48:00,70.8,69.6,30.03,NW,306,1.0,1.0,96,0.00,,,2.38,Wunderground v.1.15,2013-08-03 15:48:00,
2013-08-03 10:53:00,70.9,69.7,30.03,West,281,1.0,1.0,96,0.00,,,2.38,Wunderground v.1.15,2013-08-03 15:53:00,
2013-08-03 10:58:00,71.2,70.0,30.03,WSW,256,0.0,1.0,96,0.00,,,2.38,Wunderground v.1.15,2013-08-03 15:58:00,
2013-08-03 11:03:00,71.2,69.7,30.03,SE,129,0.0,2.0,95,0.00,,,2.38,Wunderground v.1.15,2013-08-03 16:03:00,
2013-08-03 11:08:00,71.3,69.8,30.03,SE,131,0.0,2.0,95,0.00,,,2.38,Wunderground v.1.15,2013-08-03 16:08:00,
2013-08-03 11:13:00,71.8,70.3,30.03,WSW,256,1.0,1.0,95,0.00,,,2.38,Wunderground v.1.15,2013-08-03 16:13:00,
2013-08-03 11:18:00,71.9,70.1,30.03,SW,235,2.0,2.0,94,0.00,,,2.38,Wunderground v.1.15,2013-08-03 16:18:00,
2013-08-03 11:23:00,71.6,69.5,30.03,ESE,111,0.0,2.0,93,0.00,,,2.38,Wunderground v.1.15,2013-08-03 16:23:00,
2013-08-03 11:28:00,71.6,69.8,30.03,East,88,0.0,2.0,94,0.00,,,2.38,Wunderground v.1.15,2013-08-03 16:28:00,
2013-08-03 11:33:00,71.6,69.8,30.02,East,96,0.0,0.0,94,0.00,,,2.38,Wunderground v.1.15,2013-08-03 16:33:00,
2013-08-03 11:38:00,72.0,70.2,30.02,SW,226,0.0,1.0,94,0.00,,,2.38,Wunderground v.1.15,2013-08-03 16:38:00,
2013-08-03 11:43:00,72.4,70.6,30.02,WSW,245,0.0,1.0,94,0.00,,,2.38,Wunderground v.1.15,2013-08-03 16:43:00,
2013-08-03 11:48:00,72.8,70.7,30.02,West,271,0.0,1.0,93,0.00,,,2.38,Wunderground v.1.15,2013-08-03 16:48:00,
2013-08-03 11:53:00,73.1,71.0,30.01,SW,233,0.0,1.0,93,0.00,,,2.38,Wunderground v.1.15,2013-08-03 16:53:00,
2013-08-03 11:58:00,73.4,70.9,30.01,West,262,0.0,1.0,92,0.00,,,2.38,Wunderground v.1.15,2013-08-03 16:58:00,
2013-08-03 12:03:00,74.0,71.5,30.01,West,260,1.0,2.0,92,0.00,,,2.38,Wunderground v.1.15,2013-08-03 17:03:00,
2013-08-03 12:08:00,74.3,71.2,30.01,SE,132,2.0,3.0,90,0.00,,,2.38,Wunderground v.1.15,2013-08-03 17:08:00,
2013-08-03 12:13:00,74.4,70.9,30.00,West,276,2.0,4.0,89,0.00,,,2.38,Wunderground v.1.15,2013-08-03 17:13:00,
2013-08-03 12:18:00,74.6,71.5,30.00,WNW,283,4.0,4.0,90,0.00,,,2.38,Wunderground v.1.15,2013-08-03 17:18:00,
2013-08-03 12:23:00,74.8,71.3,29.99,WNW,287,2.0,3.0,89,0.00,,,2.38,Wunderground v.1.15,2013-08-03 17:23:00,
2013-08-03 12:28:00,75.0,71.2,29.99,West,263,0.0,5.0,88,0.00,,,2.38,Wunderground v.1.15,2013-08-03 17:28:00,
2013-08-03 12:33:00,75.2,71.7,29.99,WSW,243,3.0,5.0,89,0.00,,,2.38,Wunderground v.1.15,2013-08-03 17:33:00,
2013-08-03 12:38:00,75.3,71.5,29.99,SW,234,2.0,5.0,88,0.00,,,2.38,Wunderground v.1.15,2013-08-03 17:38:00,
2013-08-03 12:43:00,75.3,71.5,29.99,West,278,1.0,5.0,88,0.00,,,2.38,Wunderground v.1.15,2013-08-03 17:43:00,
2013-08-03 12:48:00,75.3,71.5,29.99,WNW,291,2.0,6.0,88,0.00,,,2.38,Wunderground v.1.15,2013-08-03 17:48:00,
2013-08-03 12:53:00,75.6,71.5,29.99,WNW,287,2.0,4.0,87,0.00,,,2.38,Wunderground v.1.15,2013-08-03 17:53:00,
2013-08-03 12:58:00,76.6,72.1,29.98,WSW,252,2.0,4.0,86,0.00,,,2.38,Wunderground v.1.15,2013-08-03 17:58:00,
2013-08-03 13:03:00,76.9,72.0,29.98,West,273,2.0,5.0,85,0.00,,,2.38,Wunderground v.1.15,2013-08-03 18:03:00,
2013-08-03 13:08:00,77.4,72.5,29.98,NW,321,0.0,5.0,85,0.00,,,2.38,Wunderground v.1.15,2013-08-03 18:08:00,
2013-08-03 13:13:00,78.4,73.9,29.98,WNW,286,1.0,2.0,86,0.00,,,2.38,Wunderground v.1.15,2013-08-03 18:13:00,
2013-08-03 13:18:00,79.1,73.1,29.98,NW,308,1.0,2.0,82,0.00,,,2.38,Wunderground v.1.15,2013-08-03 18:18:00,
2013-08-03 13:23:00,79.6,73.3,29.98,SW,228,1.0,3.0,81,0.00,,,2.38,Wunderground v.1.15,2013-08-03 18:23:00,
2013-08-03 13:28:00,80.1,73.4,29.98,WNW,295,1.0,3.0,80,0.00,,,2.38,Wunderground v.1.15,2013-08-03 18:28:00,
2013-08-03 13:33:00,80.5,73.8,29.98,WNW,289,0.0,3.0,80,0.00,,,2.38,Wunderground v.1.15,2013-08-03 18:33:00,
2013-08-03 13:38:00,80.7,73.2,29.98,West,281,0.0,3.0,78,0.00,,,2.38,Wunderground v.1.15,2013-08-03 18:38:00,
2013-08-03 13:43:00,81.4,74.3,29.97,WNW,285,0.0,1.0,79,0.00,,,2.38,Wunderground v.1.15,2013-08-03 18:43:00,
2013-08-03 13:48:00,81.7,74.2,29.97,West,274,1.0,2.0,78,0.00,,,2.38,Wunderground v.1.15,2013-08-03 18:48:00,
2013-08-03 13:53:00,82.1,73.8,29.97,West,277,0.0,2.0,76,0.00,,,2.38,Wunderground v.1.15,2013-08-03 18:53:00,
2013-08-03 13:58:00,82.3,74.0,29.97,WNW,292,1.0,3.0,76,0.00,,,2.38,Wunderground v.1.15,2013-08-03 18:58:00,
2013-08-03 14:03:00,82.8,73.3,29.97,WNW,291,1.0,2.0,73,0.00,,,2.38,Wunderground v.1.15,2013-08-03 19:03:00,
2013-08-03 14:08:00,83.3,74.5,29.97,SW,233,1.0,2.0,75,0.00,,,2.38,Wunderground v.1.15,2013-08-03 19:08:00,
2013-08-03 14:13:00,84.1,75.3,29.97,SW,222,0.0,2.0,75,0.00,,,2.38,Wunderground v.1.15,2013-08-03 19:13:00,
2013-08-03 14:18:00,85.2,75.6,29.97,WSW,245,2.0,2.0,73,0.00,,,2.38,Wunderground v.1.15,2013-08-03 19:18:00,
2013-08-03 14:23:00,85.2,75.1,29.97,SW,229,0.0,2.0,72,0.00,,,2.38,Wunderground v.1.15,2013-08-03 19:23:00,
2013-08-03 14:29:00,85.6,74.3,29.97,North,9,0.0,3.0,69,0.00,,,2.38,Wunderground v.1.15,2013-08-03 19:29:00,
2013-08-03 14:34:00,85.9,75.4,29.97,West,264,1.0,3.0,71,0.00,,,2.38,Wunderground v.1.15,2013-08-03 19:34:00,
2013-08-03 14:39:00,85.9,74.5,29.97,WNW,288,1.0,3.0,69,0.00,,,2.38,Wunderground v.1.15,2013-08-03 19:39:00,
2013-08-03 14:43:00,85.9,74.1,29.97,WNW,288,0.0,3.0,68,0.00,,,2.38,Wunderground v.1.15,2013-08-03 19:43:00,
2013-08-03 14:48:00,86.3,76.2,29.96,WSW,255,2.0,3.0,72,0.00,,,2.38,Wunderground v.1.15,2013-08-03 19:48:00,
2013-08-03 14:54:00,87.1,74.8,29.96,SW,219,0.0,3.0,67,0.00,,,2.38,Wunderground v.1.15,2013-08-03 19:54:00,
2013-08-03 14:59:00,87.6,76.2,29.96,ENE,60,1.0,3.0,69,0.00,,,2.38,Wunderground v.1.15,2013-08-03 19:59:00,
2013-08-03 15:04:00,87.6,75.7,29.96,SW,224,0.0,3.0,68,0.00,,,2.38,Wunderground v.1.15,2013-08-03 20:04:00,
2013-08-03 15:09:00,87.9,75.1,29.96,WNW,295,1.0,3.0,66,0.00,,,2.38,Wunderground v.1.15,2013-08-03 20:09:00,
2013-08-03 15:13:00,87.4,76.0,29.96,West,265,1.0,2.0,69,0.00,,,2.38,Wunderground v.1.15,2013-08-03 20:13:00,
2013-08-03 15:18:00,87.6,74.8,29.96,NNE,33,0.0,4.0,66,0.00,,,2.38,Wunderground v.1.15,2013-08-03 20:18:00,
2013-08-03 15:23:00,88.3,76.4,29.96,ENE,78,3.0,4.0,68,0.00,,,2.38,Wunderground v.1.15,2013-08-03 20:23:00,
2013-08-03 15:28:00,88.2,75.9,29.95,ENE,64,3.0,4.0,67,0.00,,,2.38,Wunderground v.1.15,2013-08-03 20:28:00,
2013-08-03 15:33:00,88.3,75.0,29.95,ENE,75,0.0,2.0,65,0.00,,,2.38,Wunderground v.1.15,2013-08-03 20:33:00,
2013-08-03 15:38:00,89.2,76.4,29.95,WNW,284,1.0,2.0,66,0.00,,,2.38,Wunderground v.1.15,2013-08-03 20:38:00,
2013-08-03 15:43:00,89.7,76.4,29.95,WNW,283,1.0,2.0,65,0.00,,,2.38,Wunderground v.1.15,2013-08-03 20:43:00,
2013-08-03 15:48:00,90.0,77.1,29.95,ESE,118,1.0,2.0,66,0.00,,,2.38,Wunderground v.1.15,2013-08-03 20:48:00,
2013-08-03 15:53:00,90.1,75.3,29.95,NE,49,0.0,2.0,62,0.00,,,2.38,Wunderground v.1.15,2013-08-03 20:53:00,
2013-08-03 15:58:00,90.3,75.0,29.95,ESE,114,1.0,3.0,61,0.00,,,2.38,Wunderground v.1.15,2013-08-03 20:58:00,
2013-08-03 16:03:00,90.7,75.9,29.95,ESE,118,2.0,3.0,62,0.00,,,2.38,Wunderground v.1.15,2013-08-03 21:03:00,
2013-08-03 16:08:00,90.0,76.2,29.95,SE,134,2.0,4.0,64,0.00,,,2.38,Wunderground v.1.15,2013-08-03 21:08:00,
2013-08-03 16:13:00,89.3,75.0,29.95,ENE,58,1.0,4.0,63,0.00,,,2.38,Wunderground v.1.15,2013-08-03 21:13:00,
2013-08-03 16:18:00,89.5,75.7,29.95,SE,124,1.0,6.0,64,0.00,,,2.38,Wunderground v.1.15,2013-08-03 21:18:00,
2013-08-03 16:23:00,89.2,75.4,29.95,East,98,1.0,5.0,64,0.00,,,2.38,Wunderground v.1.15,2013-08-03 21:23:00,
2013-08-03 16:28:00,88.6,75.3,29.95,SE,138,1.0,7.0,65,0.00,,,2.38,Wunderground v.1.15,2013-08-03 21:28:00,
2013-08-03 16:34:00,88.5,75.2,29.95,SSE,147,2.0,2.0,65,0.00,,,2.38,Wunderground v.1.15,2013-08-03 21:34:00,
2013-08-03 16:39:00,89.0,75.2,29.95,North,9,0.0,3.0,64,0.00,,,2.38,Wunderground v.1.15,2013-08-03 21:39:00,
2013-08-03 16:44:00,88.7,75.0,29.95,ENE,63,0.0,2.0,64,0.00,,,2.38,Wunderground v.1.15,2013-08-03 21:44:00,
2013-08-03 16:49:00,88.3,75.5,29.95,East,86,0.0,2.0,66,0.00,,,2.38,Wunderground v.1.15,2013-08-03 21:49:00,
2013-08-03 16:53:00,87.9,76.0,29.95,ESE,114,0.0,3.0,68,0.00,,,2.38,Wunderground v.1.15,2013-08-03 21:53:00,
2013-08-03 16:58:00,87.5,75.2,29.95,SE,134,0.0,3.0,67,0.00,,,2.38,Wunderground v.1.15,2013-08-03 21:58:00,
2013-08-03 17:03:00,87.2,75.8,29.95,NE,52,2.0,2.0,69,0.00,,,2.38,Wunderground v.1.15,2013-08-03 22:03:00,
2013-08-03 17:08:00,86.9,75.9,29.96,ENE,65,0.0,3.0,70,0.00,,,2.38,Wunderground v.1.15,2013-08-03 22:08:00,
2013-08-03 17:14:00,86.8,76.3,29.96,NNE,32,0.0,1.0,71,0.00,,,2.38,Wunderground v.1.15,2013-08-03 22:14:00,
2013-08-03 17:18:00,86.7,77.4,29.96,WSW,252,3.0,3.0,74,0.00,,,2.38,Wunderground v.1.15,2013-08-03 22:18:00,
2013-08-03 17:23:00,87.2,77.5,29.96,SW,229,0.0,3.0,73,0.00,,,2.38,Wunderground v.1.15,2013-08-03 22:23:00,
2013-08-03 17:29:00,88.3,78.1,29.96,SW,235,2.0,3.0,72,0.00,,,2.38,Wunderground v.1.15,2013-08-03 22:29:00,
2013-08-03 17:33:00,88.5,77.0,29.97,WNW,288,1.0,3.0,69,0.00,,,2.38,Wunderground v.1.15,2013-08-03 22:33:00,
2013-08-03 17:38:00,87.7,77.5,29.97,WNW,288,2.0,3.0,72,0.00,,,2.38,Wunderground v.1.15,2013-08-03 22:38:00,
2013-08-03 17:43:00,87.2,76.6,29.96,SW,224,0.0,2.0,71,0.00,,,2.38,Wunderground v.1.15,2013-08-03 22:43:00,
2013-08-03 17:49:00,87.1,77.4,29.97,WSW,239,0.0,2.0,73,0.00,,,2.38,Wunderground v.1.15,2013-08-03 22:49:00,
2013-08-03 17:54:00,86.9,76.8,29.96,SW,233,2.0,2.0,72,0.00,,,2.38,Wunderground v.1.15,2013-08-03 22:54:00,
2013-08-03 17:59:00,87.0,76.9,29.96,WSW,246,1.0,2.0,72,0.00,,,2.38,Wunderground v.1.15,2013-08-03 22:59:00,
2013-08-03 18:04:00,87.0,76.0,29.96,SW,236,0.0,2.0,70,0.00,,,2.38,Wunderground v.1.15,2013-08-03 23:04:00,
2013-08-03 18:09:00,87.5,76.9,29.96,SW,236,0.0,2.0,71,0.00,,,2.38,Wunderground v.1.15,2013-08-03 23:09:00,
2013-08-03 18:14:00,87.9,76.0,29.96,SW,236,0.0,0.0,68,0.00,,,2.38,Wunderground v.1.15,2013-08-03 23:14:00,
2013-08-03 18:19:00,87.6,77.5,29.96,East,90,1.0,1.0,72,0.00,,,2.38,Wunderground v.1.15,2013-08-03 23:19:00,
2013-08-03 18:24:00,86.9,76.8,29.96,ESE,121,0.0,2.0,72,0.00,,,2.38,Wunderground v.1.15,2013-08-03 23:24:00,
2013-08-03 18:29:00,86.6,76.9,29.96,ESE,118,1.0,2.0,73,0.00,,,2.38,Wunderground v.1.15,2013-08-03 23:29:00,
2013-08-03 18:34:00,86.2,77.7,29.97,ESE,118,0.0,0.0,76,0.00,,,2.38,Wunderground v.1.15,2013-08-03 23:34:00,
2013-08-03 18:39:00,85.8,76.5,29.97,East,97,0.0,1.0,74,0.00,,,2.38,Wunderground v.1.15,2013-08-03 23:39:00,
2013-08-03 18:44:00,85.5,75.9,29.96,ESE,115,1.0,2.0,73,0.00,,,2.38,Wunderground v.1.15,2013-08-03 23:44:00,
2013-08-03 18:49:00,85.3,75.7,29.96,SE,125,1.0,2.0,73,0.00,,,2.38,Wunderground v.1.15,2013-08-03 23:49:00,
2013-08-03 18:54:00,85.3,76.5,29.96,SE,125,1.0,1.0,75,0.00,,,2.38,Wunderground v.1.15,2013-08-03 23:54:00,
2013-08-03 18:59:00,85.3,76.1,29.97,ESE,111,0.0,2.0,74,0.00,,,2.38,Wunderground v.1.15,2013-08-03 23:59:00,
2013-08-03 19:05:00,85.2,76.0,29.96,ESE,121,3.0,3.0,74,0.00,,,2.38,Wunderground v.1.15,2013-08-04 00:05:00,
2013-08-03 19:11:00,84.9,75.3,29.96,ESE,107,0.0,1.0,73,0.00,,,2.38,Wunderground v.1.15,2013-08-04 00:11:00,
2013-08-03 19:17:00,84.7,75.9,29.96,ESE,107,0.0,1.0,75,0.00,,,2.38,Wunderground v.1.15,2013-08-04 00:17:00,
2013-08-03 19:22:00,84.3,76.7,29.96,ESE,107,0.0,0.0,78,0.00,,,2.38,Wunderground v.1.15,2013-08-04 00:22:00,
2013-08-03 19:28:00,84.0,76.8,29.97,ESE,107,0.0,0.0,79,0.00,,,2.38,Wunderground v.1.15,2013-08-04 00:28:00,
2013-08-03 19:33:00,83.7,76.9,29.97,ESE,107,0.0,0.0,80,0.00,,,2.38,Wunderground v.1.15,2013-08-04 00:33:00,
2013-08-03 19:38:00,83.4,77.0,29.97,ESE,107,0.0,1.0,81,0.00,,,2.38,Wunderground v.1.15,2013-08-04 00:38:00,
2013-08-03 19:43:00,83.0,76.6,29.97,ESE,108,0.0,1.0,81,0.00,,,2.38,Wunderground v.1.15,2013-08-04 00:43:00,
2013-08-03 19:48:00,82.5,76.8,29.97,East,82,0.0,1.0,83,0.00,,,2.38,Wunderground v.1.15,2013-08-04 00:48:00,
2013-08-03 19:53:00,81.9,76.6,29.97,East,82,0.0,1.0,84,0.00,,,2.38,Wunderground v.1.15,2013-08-04 00:53:00,
2013-08-03 19:58:00,81.4,76.5,29.97,East,82,0.0,1.0,85,0.00,,,2.38,Wunderground v.1.15,2013-08-04 00:58:00,
2013-08-03 20:03:00,81.0,76.1,29.98,East,82,0.0,0.0,85,0.00,,,2.38,Wunderground v.1.15,2013-08-04 01:03:00,
2013-08-03 20:08:00,80.6,75.7,29.98,East,82,0.0,0.0,85,0.00,,,2.38,Wunderground v.1.15,2013-08-04 01:08:00,
2013-08-03 20:13:00,80.5,76.3,29.98,East,82,0.0,0.0,87,0.00,,,2.38,Wunderground v.1.15,2013-08-04 01:13:00,
2013-08-03 20:18:00,80.3,76.1,29.98,East,82,0.0,0.0,87,0.00,,,2.38,Wunderground v.1.15,2013-08-04 01:18:00,
2013-08-03 20:23:00,80.1,75.9,29.98,East,82,0.0,0.0,87,0.00,,,2.38,Wunderground v.1.15,2013-08-04 01:23:00,
2013-08-03 20:28:00,79.8,75.9,29.98,East,82,0.0,0.0,88,0.00,,,2.38,Wunderground v.1.15,2013-08-04 01:28:00,
2013-08-03 20:33:00,79.3,75.4,29.99,East,82,0.0,0.0,88,0.00,,,2.38,Wunderground v.1.15,2013-08-04 01:33:00,
2013-08-03 20:38:00,78.9,75.0,29.99,East,82,0.0,0.0,88,0.00,,,2.38,Wunderground v.1.15,2013-08-04 01:38:00,
2013-08-03 20:43:00,78.7,75.2,29.99,ESE,103,0.0,0.0,89,0.00,,,2.38,Wunderground v.1.15,2013-08-04 01:43:00,
2013-08-03 20:48:00,78.6,75.1,29.99,ESE,103,0.0,0.0,89,0.00,,,2.38,Wunderground v.1.15,2013-08-04 01:48:00,
2013-08-03 20:53:00,78.5,75.0,30.00,ESE,103,0.0,0.0,89,0.00,,,2.38,Wunderground v.1.15,2013-08-04 01:53:00,
2013-08-03 20:58:00,78.4,74.9,30.00,ESE,103,0.0,0.0,89,0.00,,,2.38,Wunderground v.1.15,2013-08-04 01:58:00,
2013-08-03 21:03:00,78.3,74.8,30.00,ESE,103,0.0,0.0,89,0.00,,,2.38,Wunderground v.1.15,2013-08-04 02:03:00,
2013-08-03 21:08:00,78.2,75.0,30.00,ESE,103,0.0,0.0,90,0.00,,,2.38,Wunderground v.1.15,2013-08-04 02:08:00,
2013-08-03 21:13:00,78.1,74.9,30.00,ESE,103,0.0,0.0,90,0.00,,,2.38,Wunderground v.1.15,2013-08-04 02:13:00,
2013-08-03 21:18:00,78.0,75.2,30.01,ESE,103,0.0,0.0,91,0.00,,,2.38,Wunderground v.1.15,2013-08-04 02:18:00,
2013-08-03 21:23:00,77.9,75.1,30.01,ESE,103,0.0,0.0,91,0.00,,,2.38,Wunderground v.1.15,2013-08-04 02:23:00,
2013-08-03 21:28:00,77.7,74.9,30.01,ESE,103,0.0,0.0,91,0.00,,,2.38,Wunderground v.1.15,2013-08-04 02:28:00,
2013-08-03 21:34:00,77.5,74.7,30.01,ESE,103,0.0,0.0,91,0.00,,,2.38,Wunderground v.1.15,2013-08-04 02:34:00,
2013-08-03 21:40:00,77.2,74.7,30.01,ESE,103,0.0,0.0,92,0.00,,,2.38,Wunderground v.1.15,2013-08-04 02:40:00,
2013-08-03 21:46:00,77.0,74.5,30.01,ESE,103,0.0,0.0,92,0.00,,,2.38,Wunderground v.1.15,2013-08-04 02:46:00,
2013-08-03 21:51:00,76.8,74.3,30.02,ESE,103,0.0,0.0,92,0.00,,,2.38,Wunderground v.1.15,2013-08-04 02:51:00,
2013-08-03 21:57:00,76.6,74.1,30.02,ESE,103,0.0,0.0,92,0.00,,,2.38,Wunderground v.1.15,2013-08-04 02:57:00,
2013-08-03 22:02:00,76.4,73.9,30.02,ESE,103,0.0,0.0,92,0.00,,,2.38,Wunderground v.1.15,2013-08-04 03:02:00,
2013-08-03 22:07:00,76.4,74.2,30.02,ESE,103,0.0,0.0,93,0.00,,,2.38,Wunderground v.1.15,2013-08-04 03:07:00,
2013-08-03 22:12:00,76.3,74.1,30.02,ESE,103,0.0,0.0,93,0.00,,,2.38,Wunderground v.1.15,2013-08-04 03:12:00,
2013-08-03 22:17:00,76.2,74.0,30.02,ESE,103,0.0,0.0,93,0.00,,,2.38,Wunderground v.1.15,2013-08-04 03:17:00,
2013-08-03 22:22:00,76.1,73.6,30.02,ESE,103,0.0,0.0,92,0.00,,,2.38,Wunderground v.1.15,2013-08-04 03:22:00,
2013-08-03 22:27:00,76.0,73.5,30.02,East,87,0.0,0.0,92,0.00,,,2.38,Wunderground v.1.15,2013-08-04 03:27:00,
2013-08-03 22:32:00,76.0,73.2,30.02,East,87,0.0,0.0,91,0.00,,,2.38,Wunderground v.1.15,2013-08-04 03:32:00,
2013-08-03 22:37:00,75.9,73.4,30.02,East,88,0.0,0.0,92,0.00,,,2.38,Wunderground v.1.15,2013-08-04 03:37:00,
2013-08-03 22:42:00,75.8,73.3,30.02,East,87,0.0,0.0,92,0.00,,,2.38,Wunderground v.1.15,2013-08-04 03:42:00,
2013-08-03 22:47:00,75.6,73.1,30.02,East,88,0.0,0.0,92,0.00,,,2.38,Wunderground v.1.15,2013-08-04 03:47:00,
2013-08-03 22:52:00,75.5,73.0,30.02,East,88,0.0,0.0,92,0.00,,,2.38,Wunderground v.1.15,2013-08-04 03:52:00,
2013-08-03 22:57:00,75.6,73.4,30.03,East,88,0.0,0.0,93,0.00,,,2.38,Wunderground v.1.15,2013-08-04 03:57:00,
2013-08-03 23:01:00,75.6,73.4,30.03,East,88,0.0,0.0,93,0.00,,,2.38,Wunderground v.1.15,2013-08-04 04:01:00,
2013-08-03 23:03:00,75.6,73.4,30.03,East,88,0.0,0.0,93,0.00,,,2.38,Wunderground v.1.15,2013-08-04 04:03:00,
2013-08-03 23:08:00,75.5,73.3,30.03,East,88,0.0,0.0,93,0.00,,,2.38,Wunderground v.1.15,2013-08-04 04:08:00,
2013-08-03 23:13:00,75.5,73.3,30.03,East,88,0.0,0.0,93,0.00,,,2.38,Wunderground v.1.15,2013-08-04 04:13:00,
2013-08-03 23:18:00,75.6,73.8,30.04,East,88,0.0,0.0,94,0.00,,,2.38,Wunderground v.1.15,2013-08-04 04:18:00,
2013-08-03 23:23:00,75.6,73.8,30.04,East,92,0.0,0.0,94,0.00,,,2.38,Wunderground v.1.15,2013-08-04 04:23:00,
2013-08-03 23:28:00,75.5,73.7,30.03,East,91,0.0,0.0,94,0.00,,,2.38,Wunderground v.1.15,2013-08-04 04:28:00,
2013-08-03 23:33:00,75.5,73.7,30.03,SSW,211,0.0,0.0,94,0.00,,,2.38,Wunderground v.1.15,2013-08-04 04:33:00,
2013-08-03 23:38:00,75.4,73.6,30.03,SSW,211,0.0,0.0,94,0.00,,,2.38,Wunderground v.1.15,2013-08-04 04:38:00,
2013-08-03 23:43:00,75.3,73.5,30.03,SSW,211,0.0,0.0,94,0.00,,,2.38,Wunderground v.1.15,2013-08-04 04:43:00,
2013-08-03 23:48:00,75.2,73.4,30.03,SSW,210,0.0,0.0,94,0.00,,,2.38,Wunderground v.1.15,2013-08-04 04:48:00,
2013-08-03 23:53:00,75.2,73.4,30.03,SSW,211,0.0,0.0,94,0.00,,,2.38,Wunderground v.1.15,2013-08-04 04:53:00,
2013-08-03 23:58:00,75.1,73.3,30.03,SSW,211,0.0,0.0,94,0.00,,,2.38,Wunderground v.1.15,2013-08-04 04:58:00,